Simultaneous Nadir Overpasses (SNOs) Predictions

Prediction of SNOs between LANDSAT-8 and NOAA-19 Satellite Orbit:

Table of predicted SNOs for the next 14.0 days since TLE Epoch: 4/20/2024
Index Date (LANDSAT-8) Time (LANDSAT-8) Lat,Lon (LANDSAT-8) SZA (LANDSAT-8 ) Date (NOAA-19) Time (NOAA-19) Lat,Lon (NOAA-19) SZA (NOAA-19 ) Distance(km) Time Diff (sec)
1 04/20/2024 14:37:34 80.74, -5.14 70.57 04/20/2024 14:36:31 80.73, -5.31 70.52 3.03 63
2 04/20/2024 15:27:00 -80.76, 162.80 109.40 04/20/2024 15:27:28 -80.76, 162.64 109.41 2.79 28
3 04/22/2024 21:00:46 80.70,-101.33 69.76 04/22/2024 20:59:32 80.72,-101.23 69.75 2.84 74
4 04/22/2024 21:50:11 -80.76, 66.96 110.15 04/22/2024 21:50:29 -80.76, 66.95 110.15 0.19 18
5 04/25/2024 04:13:21 -80.76, -28.83 110.88 04/25/2024 04:13:30 -80.75, -28.87 110.89 1.01 9
6 04/27/2024 10:36:31 -80.74,-124.91 111.64 04/27/2024 10:36:31 -80.74,-124.83 111.63 1.75 0
7 04/29/2024 16:59:39 -80.74, 139.39 112.32 04/29/2024 16:59:31 -80.74, 139.44 112.32 0.89 8
8 05/01/2024 23:22:47 -80.73, 43.40 113.03 05/01/2024 23:22:31 -80.74, 43.57 113.01 3.23 16



Historial Predications of SNOs between LANDSAT-8 and NOAA-19
